This is the latest recevied weather packets stored in our database for station/object N5SRF. If no packets are shown the sender has not sent any weather packets the latest 10 day(s).
| Time | Temp. | Humidity | Pressure | Rain* | Wind** | Luminosity | Snow |
|---|---|---|---|---|---|---|---|
| 1778113433 | 22.78° C | 90% | 1014 hPa | 0 mm | - | 21 W/m² | - |
| 1778113130 | 22.78° C | 89% | 1014 hPa | 0 mm | - | 25 W/m² | - |
| 1778112827 | 23.33° C | 89% | 1013.8 hPa | 0 mm | - | 20 W/m² | - |
| 1778112523 | 23.33° C | 90% | 1013.9 hPa | 0 mm | - | 17 W/m² | - |
| 1778112219 | 23.89° C | 90% | 1014 hPa | 0 mm | - | 28 W/m² | - |
| 1778111916 | 23.89° C | 90% | 1013.8 hPa | 0 mm | - | 38 W/m² | - |
| 1778111612 | 23.89° C | 90% | 1013.7 hPa | 0 mm | - | 25 W/m² | - |
| 1778111303 | 23.89° C | 91% | 1013.4 hPa | 0 mm | - | 36 W/m² | - |
| 1778111001 | 23.89° C | 91% | 1013.4 hPa | 0 mm | - | 53 W/m² | - |
| 1778110699 | 23.89° C | 91% | 1013.6 hPa | 0 mm | - | 46 W/m² | - |
| 1778110394 | 24.44° C | 91% | 1013.3 hPa | 0 mm | - | 63 W/m² | - |
| 1778110091 | 25° C | 90% | 1013.3 hPa | 0 mm | - | 52 W/m² | - |
| 1778109786 | 26.11° C | 88% | 1013.1 hPa | 0 mm | - | 64 W/m² | - |
| 1778109484 | 28.33° C | 87% | 1012.9 hPa | 0 mm | - | 30 W/m² | - |
| 1778109182 | 28.89° C | 89% | 1012.8 hPa | 0 mm | - | 94 W/m² | - |
| 1778108879 | 28.33° C | 89% | 1012.8 hPa | 0 mm | - | 161 W/m² | - |
| 1778108575 | 28.33° C | 89% | 1012.8 hPa | 0 mm | - | 196 W/m² | - |
| 1778108272 | 27.78° C | 89% | 1012.7 hPa | 0 mm | - | 130 W/m² | - |
| 1778107969 | 27.78° C | 90% | 1012.6 hPa | 0 mm | - | 121 W/m² | - |
| 1778107664 | 27.78° C | 90% | 1012.5 hPa | 0 mm | - | 132 W/m² | - |
| 1778107363 | 27.78° C | 90% | 1012.5 hPa | 0 mm | - | 123 W/m² | - |
| 1778107059 | 28.33° C | 89% | 1012.5 hPa | 0 mm | - | 126 W/m² | - |
| 1778106754 | 28.33° C | 88% | 1012.6 hPa | 0 mm | - | 134 W/m² | - |
| 1778106451 | 28.89° C | 88% | 1012.6 hPa | 0 mm | - | 125 W/m² | - |
| 1778106146 | 28.89° C | 88% | 1012.6 hPa | 0 mm | - | 117 W/m² | - |
* Rain latest hour (hover to see other rain measurements)
** Current wind speed in m/s (hover to see current wind gust speed)